2024/03/03 00:00:00,59.3,-8.4
2024/03/03 00:10:00,59.2,-8.7
2024/03/03 00:20:00,59.1,-8.8
2024/03/03 00:30:00,59.1,-8.9
2024/03/03 00:40:00,59.0,-8.6
2024/03/03 00:50:00,58.9,-8.6
2024/03/03 01:00:00,58.8,-8.9
2024/03/03 01:10:00,58.8,-8.5
2024/03/03 01:20:00,58.8,-8.8
2024/03/03 01:30:00,58.8,-8.1
2024/03/03 01:40:00,58.8,-8.1
2024/03/03 01:50:00,58.7,-8.4
2024/03/03 02:00:00,58.7,-8.7
2024/03/03 02:10:00,58.6,-7.9
2024/03/03 02:20:00,58.5,-8.4
2024/03/03 02:30:00,58.4,-8.4
2024/03/03 02:40:00,58.2,-8.9
2024/03/03 02:50:00,58.1,-8.2
2024/03/03 03:00:00,58.1,-8.3
2024/03/03 03:10:00,58.1,-8.2
2024/03/03 03:20:00,58.1,-8.1
2024/03/03 03:30:00,58.1,-8.2
2024/03/03 03:40:00,58.1,-7.8
2024/03/03 03:50:00,58.1,-8.1
2024/03/03 04:00:00,58.0,-8.2
2024/03/03 04:10:00,57.8,-8.2
2024/03/03 04:20:00,57.7,-8.4
2024/03/03 04:30:00,57.6,-8.2
2024/03/03 04:40:00,57.6,-8.4
2024/03/03 04:50:00,57.6,-8.4
2024/03/03 05:00:00,57.6,-8.1
2024/03/03 05:10:00,57.6,-8.1
2024/03/03 05:20:00,57.6,-7.4
2024/03/03 05:30:00,57.5,-7.5
2024/03/03 05:40:00,57.5,-7.4
2024/03/03 05:50:00,57.5,-8.0
2024/03/03 06:00:00,57.4,-8.4
2024/03/03 06:10:00,57.3,-8.2
2024/03/03 06:20:00,57.2,-8.2
2024/03/03 06:30:00,57.2,-7.9
2024/03/03 06:40:00,57.1,-7.8
2024/03/03 06:50:00,57.1,-7.5
2024/03/03 07:00:00,57.2,-8.0
2024/03/03 07:10:00,57.1,-7.8
2024/03/03 07:20:00,57.0,-7.1
2024/03/03 07:30:00,57.1,-6.7
2024/03/03 07:40:00,57.0,-6.2
2024/03/03 07:50:00,57.1,-5.5
2024/03/03 08:00:00,56.9,-4.7
2024/03/03 08:10:00,56.7,-4.2
2024/03/03 08:20:00,56.4,-3.4
2024/03/03 08:30:00,56.0,-3.0
2024/03/03 08:40:00,56.1,-2.2
2024/03/03 08:50:00,56.2,-1.7
2024/03/03 09:00:00,56.2,-1.3
2024/03/03 09:10:00,56.1,-0.9
2024/03/03 09:20:00,56.0,-0.1
2024/03/03 09:30:00,55.7,-0.0
2024/03/03 09:40:00,55.6, 0.3
2024/03/03 09:50:00,55.3, 0.7
2024/03/03 10:00:00,54.7, 0.8
2024/03/03 10:10:00,53.9, 0.7
2024/03/03 10:20:00,53.6, 1.6
2024/03/03 10:30:00,52.6, 2.1
2024/03/03 10:40:00,52.6, 2.5
2024/03/03 10:50:00,52.6, 3.1
2024/03/03 11:00:00,52.6, 3.2
2024/03/03 11:10:00,52.6, 3.2
2024/03/03 11:20:00,52.4, 4.3
2024/03/03 11:30:00,51.7, 4.3
2024/03/03 11:40:00,51.7, 4.3
2024/03/03 11:50:00,51.7, 4.5
2024/03/03 12:00:00,51.7, 4.0
2024/03/03 12:10:00,51.7, 4.4
2024/03/03 12:20:00,51.7, 4.0
2024/03/03 12:30:00,51.7, 3.2
2024/03/03 12:40:00,51.7, 3.4
2024/03/03 12:50:00,51.7, 3.2
2024/03/03 13:00:00,51.7, 2.8
2024/03/03 13:10:00,51.7, 2.6
2024/03/03 13:20:00,51.7, 2.7
2024/03/03 13:30:00,51.7, 2.3
2024/03/03 13:40:00,51.7, 2.2
2024/03/03 13:50:00,51.4, 1.0
2024/03/03 14:00:00,51.4, 1.2
2024/03/03 14:10:00,51.4, 1.1
2024/03/03 14:20:00,51.4, 0.8
2024/03/03 14:30:00,51.4, 1.4
2024/03/03 14:40:00,50.5, 0.7
2024/03/03 14:50:00,49.1, 0.5
2024/03/03 15:00:00,48.6,-0.0
2024/03/03 15:10:00,49.0, 0.1
2024/03/03 15:20:00,49.5,-0.5
2024/03/03 15:30:00,49.5, 0.6
2024/03/03 15:40:00,49.5, 1.4
2024/03/03 15:50:00,49.5, 1.4
2024/03/03 16:00:00,49.5, 1.4
2024/03/03 16:10:00,49.5, 1.1
2024/03/03 16:20:00,49.1, 0.9
2024/03/03 16:30:00,48.7, 0.3
2024/03/03 16:40:00,48.7, 0.6
2024/03/03 16:50:00,48.0, 0.8
2024/03/03 17:00:00,47.9, 0.2
2024/03/03 17:10:00,48.7, 0.3
2024/03/03 17:20:00,48.4,-0.0
2024/03/03 17:30:00,48.5,-0.0
2024/03/03 17:40:00,49.2,-0.6
2024/03/03 17:50:00,49.6,-0.7
2024/03/03 18:00:00,49.6,-1.2
2024/03/03 18:10:00,49.8,-1.4
2024/03/03 18:20:00,49.8,-1.8
2024/03/03 18:30:00,49.8,-1.7
2024/03/03 18:40:00,49.6,-2.3
2024/03/03 18:50:00,49.4,-2.2
2024/03/03 19:00:00,49.3,-2.1
2024/03/03 19:10:00,49.4,-2.2
2024/03/03 19:20:00,49.4,-2.1
2024/03/03 19:30:00,49.3,-2.5
2024/03/03 19:40:00,49.2,-2.2
2024/03/03 19:50:00,49.2,-2.6
2024/03/03 20:00:00,49.2,-2.5
2024/03/03 20:10:00,49.2,-2.4
2024/03/03 20:20:00,49.1,-2.7
2024/03/03 20:30:00,49.0,-2.8
2024/03/03 20:40:00,48.9,-2.8
2024/03/03 20:50:00,48.8,-2.8
2024/03/03 21:00:00,48.8,-3.0
2024/03/03 21:10:00,48.9,-2.9
2024/03/03 21:20:00,49.0,-3.3
2024/03/03 21:30:00,48.8,-3.3
2024/03/03 21:40:00,48.8,-3.1
2024/03/03 21:50:00,48.8,-2.9
2024/03/03 22:00:00,48.8,-3.1
2024/03/03 22:10:00,48.8,-3.1
2024/03/03 22:20:00,48.8,-3.2
2024/03/03 22:30:00,48.8,-3.2
2024/03/03 22:40:00,48.8,-2.8
2024/03/03 22:50:00,48.9,-2.4
2024/03/03 23:00:00,48.9,-2.6
2024/03/03 23:10:00,48.8,-2.1
2024/03/03 23:20:00,48.8,-2.7
2024/03/03 23:30:00,48.8,-2.4
2024/03/03 23:40:00,48.8,-2.1
2024/03/03 23:50:00,48.6,-2.8
